Flag for U.S.A. Weather past 2 weeks in Wilmington, Delaware, U.S.A.

Now
71 °F

Clear.


Feels Like: 67 °F
Forecast: 70 / 81 °F
Wind: 5 mph from North

Location: New Castle County Airport

Current Time: Jul 24, 2014 at 1:23:45 AM

Latest Report: Jul 24, 2014 at 12:51 AM


Visibility: 10 mi

Pressure: 29.85 "Hg

Humidity: 93%

Dew point: 69 °F

Location of WilmingtonLocation

Historic Weather in Wilmington — Graph

°F

Wilmington temperature yesterday

Maximum temperature yesterday: 90 °F (at 2:51 PM)
Minimum temperature yesterday: 71 °F (at 4:51 AM)
Average temperature yesterday: 80 °F

Past Weeks' High & Low Weather Summary

 TemperatureHumidityPressure
High90 °F (Jul 23, 2:51 PM)97% (Jul 11, 2:57 AM)30.25 "Hg (Jul 11, 2:57 AM)
Low58 °F (Jul 18, 5:51 AM)37% (Jul 18, 4:51 PM)29.72 "Hg (Jul 15, 3:51 PM)
Average76 °F72%30.04 "Hg
* Reported Jul 8 11:51 PM — Jul 23 11:51 PM, Wilmington, Weather by CustomWeather, © 2014

Note: Actual official high and low records may vary slightly from our data, if they occured in-between our weather recording intervals... More about our weather records

Advertising

Wilmington weather history for previous 24 hours

 ConditionsComfort  
Time TempWeatherWind HumidityBarometerVisibility
11:51 PM
Jul 23
72 °FClear.3 mph93%29.84 "Hg10 mi
10:51 PM73 °FPassing clouds.9 mph94%29.86 "Hg10 mi
9:51 PM73 °FPassing clouds.No wind94%29.84 "Hg10 mi
8:51 PM73 °FLight rain. Broken clouds.6 mph90%29.87 "Hg7 mi
7:51 PM85 °FScattered clouds.20 mph61%29.85 "Hg10 mi
6:51 PM88 °FSunny.10 mph55%29.81 "Hg10 mi
5:51 PM88 °FPassing clouds.13 mph63%29.80 "Hg10 mi
4:51 PM88 °FSunny.15 mph67%29.83 "Hg10 mi
3:51 PM89 °FPassing clouds.12 mph68%29.85 "Hg10 mi
2:51 PM90 °FScattered clouds.9 mph59%29.87 "Hg10 mi
1:51 PM90 °FScattered clouds.9 mph59%29.90 "Hg10 mi
12:51 PM87 °FPartly sunny.12 mph63%29.90 "Hg10 mi
11:51 AM84 °FScattered clouds.7 mph70%29.93 "Hg10 mi
10:51 AM84 °FPassing clouds.8 mph70%29.96 "Hg10 mi
9:51 AM82 °FSunny.9 mph74%29.98 "Hg10 mi
8:51 AM79 °FPassing clouds.6 mph79%30.00 "Hg10 mi
6:51 AM72 °FClear.3 mph91%30.00 "Hg10 mi
5:51 AM71 °FClear.6 mph90%29.99 "Hg10 mi
4:51 AM71 °FClear.3 mph87%30.01 "Hg10 mi
1:51 AM72 °FClear.6 mph81%30.04 "Hg10 mi
Weather by CustomWeather, © 2014

See weather overviewHow to use our weather pages